Year,Month,Day,Hour,Minute,Value (Times are PST for windgust in km/hr)
2016,10,07,00,00,29.00
2016,10,07,00,01,29.00
2016,10,07,00,02,29.00
2016,10,07,00,03,30.60
2016,10,07,00,04,32.20
2016,10,07,00,05,32.20
2016,10,07,00,06,20.90
2016,10,07,00,07,32.20
2016,10,07,00,08,22.50
2016,10,07,00,09,24.20
2016,10,07,00,10,22.50
2016,10,07,00,11,20.90
2016,10,07,00,12,25.70
2016,10,07,00,13,24.20
2016,10,07,00,14,29.00
2016,10,07,00,15,35.40
2016,10,07,00,16,19.30
2016,10,07,00,17,17.70
2016,10,07,00,18,29.00
2016,10,07,00,19,27.40
2016,10,07,00,20,30.60
2016,10,07,00,21,35.40
2016,10,07,00,22,24.20
2016,10,07,00,23,29.00
2016,10,07,00,24,24.20
2016,10,07,00,25,24.20
2016,10,07,00,26,30.60
2016,10,07,00,27,24.20
2016,10,07,00,28,30.60
2016,10,07,00,29,27.40
2016,10,07,00,30,29.00
2016,10,07,00,31,20.90
2016,10,07,00,32,32.20
2016,10,07,00,33,24.20
2016,10,07,00,34,35.40
2016,10,07,00,35,30.60
2016,10,07,00,36,22.50
2016,10,07,00,37,25.70
2016,10,07,00,38,32.20
2016,10,07,00,39,38.60
2016,10,07,00,40,29.00
2016,10,07,00,41,33.80
2016,10,07,00,42,22.50
2016,10,07,00,43,24.20
2016,10,07,00,44,25.70
2016,10,07,00,45,29.00
2016,10,07,00,46,30.60
2016,10,07,00,47,19.30
2016,10,07,00,48,29.00
2016,10,07,00,49,24.20
2016,10,07,00,50,12.90
2016,10,07,00,51,20.90
2016,10,07,00,52,24.20
2016,10,07,00,53,24.20
2016,10,07,00,54,17.70
2016,10,07,00,55,22.50
2016,10,07,00,56,17.70
2016,10,07,00,57,17.70
2016,10,07,00,58,30.60
2016,10,07,00,59,22.50
2016,10,07,01,00,17.70
2016,10,07,01,01,17.70
2016,10,07,01,02,17.70
2016,10,07,01,03,17.70
2016,10,07,01,04,20.90
2016,10,07,01,05,29.00
2016,10,07,01,06,24.20
2016,10,07,01,07,30.60
2016,10,07,01,08,30.60
2016,10,07,01,09,25.70
2016,10,07,01,10,30.60
2016,10,07,01,11,29.00
2016,10,07,01,12,22.50
2016,10,07,01,13,24.20
2016,10,07,01,14,29.00
2016,10,07,01,15,30.60
2016,10,07,01,16,33.80
2016,10,07,01,17,35.40
2016,10,07,01,18,37.00
2016,10,07,01,19,29.00
2016,10,07,01,20,35.40
2016,10,07,01,21,33.80
2016,10,07,01,22,32.20
2016,10,07,01,23,29.00
2016,10,07,01,24,22.50
2016,10,07,01,25,19.30
2016,10,07,01,26,24.20
2016,10,07,01,27,19.30
2016,10,07,01,28,17.70
2016,10,07,01,29,14.50
2016,10,07,01,30,16.10
2016,10,07,01,31,16.10
2016,10,07,01,32,17.70
2016,10,07,01,33,19.30
2016,10,07,01,34,17.70
2016,10,07,01,35,12.90
2016,10,07,01,36,14.50
2016,10,07,01,37,17.70
2016,10,07,01,38,11.30
2016,10,07,01,39,19.30
2016,10,07,01,40,12.90
2016,10,07,01,41,17.70
2016,10,07,01,42,20.90
2016,10,07,01,43,17.70
2016,10,07,01,44,16.10
2016,10,07,01,45,14.50
2016,10,07,01,46,12.90
2016,10,07,01,47,12.90
2016,10,07,01,48,14.50
2016,10,07,01,49,12.90
2016,10,07,01,50,19.30
2016,10,07,01,51,17.70
2016,10,07,01,52,17.70
2016,10,07,01,53,14.50
2016,10,07,01,54,17.70
2016,10,07,01,55,9.60
2016,10,07,01,56,14.50
2016,10,07,01,57,11.30
2016,10,07,01,58,8.10
2016,10,07,01,59,9.60
2016,10,07,02,00,8.10
2016,10,07,02,01,11.30
2016,10,07,02,02,9.60
2016,10,07,02,03,11.30
2016,10,07,02,04,9.60
2016,10,07,02,05,12.90
2016,10,07,02,06,11.30
2016,10,07,02,07,11.30
2016,10,07,02,08,11.30
2016,10,07,02,09,8.10
2016,10,07,02,10,8.10
2016,10,07,02,11,9.60
2016,10,07,02,12,11.30
2016,10,07,02,13,9.60
2016,10,07,02,14,9.60
2016,10,07,02,15,19.30
2016,10,07,02,16,22.50
2016,10,07,02,17,25.70
2016,10,07,02,18,20.90
2016,10,07,02,19,19.30
2016,10,07,02,20,19.30
2016,10,07,02,21,30.60
2016,10,07,02,22,25.70
2016,10,07,02,23,38.60
2016,10,07,02,24,38.60
2016,10,07,02,25,25.70
2016,10,07,02,26,30.60
2016,10,07,02,27,27.40
2016,10,07,02,28,35.40
2016,10,07,02,29,24.20
2016,10,07,02,30,32.20
2016,10,07,02,31,37.00
2016,10,07,02,32,35.40
2016,10,07,02,33,32.20
2016,10,07,02,34,25.70
2016,10,07,02,35,38.60
2016,10,07,02,36,30.60
2016,10,07,02,37,32.20
2016,10,07,02,38,24.20
2016,10,07,02,39,32.20
2016,10,07,02,40,38.60
2016,10,07,02,41,35.40
2016,10,07,02,42,30.60
2016,10,07,02,43,24.20
2016,10,07,02,44,24.20
2016,10,07,02,45,24.20
2016,10,07,02,46,24.20
2016,10,07,02,47,29.00
2016,10,07,02,48,35.40
2016,10,07,02,49,29.00
2016,10,07,02,50,25.70
2016,10,07,02,51,25.70
2016,10,07,02,52,24.20
2016,10,07,02,53,14.50
2016,10,07,02,54,24.20
2016,10,07,02,55,25.70
2016,10,07,02,56,12.90
2016,10,07,02,57,11.30
2016,10,07,02,58,25.70
2016,10,07,02,59,17.70
2016,10,07,03,00,16.10
2016,10,07,03,01,14.50
2016,10,07,03,02,25.70
2016,10,07,03,03,20.90
2016,10,07,03,04,22.50
2016,10,07,03,05,22.50
2016,10,07,03,06,22.50
2016,10,07,03,07,14.50
2016,10,07,03,08,19.30
2016,10,07,03,09,16.10
2016,10,07,03,10,19.30
2016,10,07,03,11,19.30
2016,10,07,03,12,20.90
2016,10,07,03,13,22.50
2016,10,07,03,14,27.40
2016,10,07,03,15,16.10
2016,10,07,03,16,24.20
2016,10,07,03,17,17.70
2016,10,07,03,18,25.70
2016,10,07,03,19,19.30
2016,10,07,03,20,19.30
2016,10,07,03,21,32.20
2016,10,07,03,22,30.60
2016,10,07,03,23,24.20
2016,10,07,03,24,22.50
2016,10,07,03,25,20.90
2016,10,07,03,26,17.70
2016,10,07,03,27,22.50
2016,10,07,03,28,22.50
2016,10,07,03,29,32.20
2016,10,07,03,30,20.90
2016,10,07,03,31,24.20
2016,10,07,03,32,25.70
2016,10,07,03,33,24.20
2016,10,07,03,34,22.50
2016,10,07,03,35,20.90
2016,10,07,03,36,20.90
2016,10,07,03,37,27.40
2016,10,07,03,38,20.90
2016,10,07,03,39,17.70
2016,10,07,03,40,16.10
2016,10,07,03,41,20.90
2016,10,07,03,42,35.40
2016,10,07,03,43,30.60
2016,10,07,03,44,20.90
2016,10,07,03,45,35.40
2016,10,07,03,46,30.60
2016,10,07,03,47,27.40
2016,10,07,03,48,24.20
2016,10,07,03,49,24.20
2016,10,07,03,50,35.40
2016,10,07,03,51,24.20
2016,10,07,03,52,30.60
2016,10,07,03,53,27.40
2016,10,07,03,54,27.40
2016,10,07,03,55,33.80
2016,10,07,03,56,24.20
2016,10,07,03,57,19.30
2016,10,07,03,58,24.20
2016,10,07,03,59,17.70
2016,10,07,04,00,24.20
2016,10,07,04,01,22.50
2016,10,07,04,02,17.70
2016,10,07,04,03,19.30
2016,10,07,04,04,19.30
2016,10,07,04,05,14.50
2016,10,07,04,06,12.90
2016,10,07,04,07,17.70
2016,10,07,04,08,16.10
2016,10,07,04,09,9.60
2016,10,07,04,10,14.50
2016,10,07,04,11,22.50
2016,10,07,04,12,16.10
2016,10,07,04,13,24.20
2016,10,07,04,14,22.50
2016,10,07,04,15,22.50
2016,10,07,04,16,20.90
2016,10,07,04,17,22.50
2016,10,07,04,18,19.30
2016,10,07,04,19,16.10
2016,10,07,04,20,11.30
2016,10,07,04,21,17.70
2016,10,07,04,22,16.10
2016,10,07,04,23,17.70
2016,10,07,04,24,12.90
2016,10,07,04,25,24.20
2016,10,07,04,26,20.90
2016,10,07,04,27,16.10
2016,10,07,04,28,14.50
2016,10,07,04,29,19.30
2016,10,07,04,30,20.90
2016,10,07,04,31,25.70
2016,10,07,04,32,16.10
2016,10,07,04,33,22.50
2016,10,07,04,34,22.50
2016,10,07,04,35,20.90
2016,10,07,04,36,19.30
2016,10,07,04,37,29.00
2016,10,07,04,38,24.20
2016,10,07,04,39,22.50
2016,10,07,04,40,32.20
2016,10,07,04,41,16.10
2016,10,07,04,42,27.40
2016,10,07,04,43,32.20
2016,10,07,04,44,29.00
2016,10,07,04,45,20.90
2016,10,07,04,46,20.90
2016,10,07,04,47,20.90
2016,10,07,04,48,19.30
2016,10,07,04,49,22.50
2016,10,07,04,50,20.90
2016,10,07,04,51,19.30
2016,10,07,04,52,33.80
2016,10,07,04,53,27.40
2016,10,07,04,54,14.50
2016,10,07,04,55,17.70
2016,10,07,04,56,17.70
2016,10,07,04,57,32.20
2016,10,07,04,58,24.20
2016,10,07,04,59,24.20
2016,10,07,05,00,19.30
2016,10,07,05,01,27.40
2016,10,07,05,02,24.20
2016,10,07,05,03,24.20
2016,10,07,05,04,24.20
2016,10,07,05,05,32.20
2016,10,07,05,06,27.40
2016,10,07,05,07,27.40
2016,10,07,05,08,33.80
2016,10,07,05,09,22.50
2016,10,07,05,10,27.40
2016,10,07,05,11,35.40
2016,10,07,05,12,22.50
2016,10,07,05,13,29.00
2016,10,07,05,14,30.60
2016,10,07,05,15,20.90
2016,10,07,05,16,14.50
2016,10,07,05,17,22.50
2016,10,07,05,18,20.90
2016,10,07,05,19,19.30
2016,10,07,05,20,25.70
2016,10,07,05,21,25.70
2016,10,07,05,22,19.30
2016,10,07,05,23,22.50
2016,10,07,05,24,17.70
2016,10,07,05,25,16.10
2016,10,07,05,26,20.90
2016,10,07,05,27,16.10
2016,10,07,05,28,16.10
2016,10,07,05,29,22.50
2016,10,07,05,30,11.30
2016,10,07,05,31,25.70
2016,10,07,05,32,24.20
2016,10,07,05,33,25.70
2016,10,07,05,34,17.70
2016,10,07,05,35,25.70
2016,10,07,05,36,25.70
2016,10,07,05,37,30.60
2016,10,07,05,38,25.70
2016,10,07,05,39,20.90
2016,10,07,05,40,22.50
2016,10,07,05,41,24.20
2016,10,07,05,42,32.20
2016,10,07,05,43,24.20
2016,10,07,05,44,17.70
2016,10,07,05,45,16.10
2016,10,07,05,46,22.50
2016,10,07,05,47,25.70
2016,10,07,05,48,19.30
2016,10,07,05,49,24.20
2016,10,07,05,50,27.40
2016,10,07,05,51,20.90
2016,10,07,05,52,29.00
2016,10,07,05,53,20.90
2016,10,07,05,54,32.20
2016,10,07,05,55,25.70
2016,10,07,05,56,30.60
2016,10,07,05,57,17.70
2016,10,07,05,58,29.00
2016,10,07,05,59,24.20
2016,10,07,06,00,22.50
2016,10,07,06,01,24.20
2016,10,07,06,02,14.50
2016,10,07,06,03,25.70
2016,10,07,06,04,22.50
2016,10,07,06,05,14.50
2016,10,07,06,06,19.30
2016,10,07,06,07,22.50
2016,10,07,06,08,25.70
2016,10,07,06,09,24.20
2016,10,07,06,10,22.50
2016,10,07,06,11,22.50
2016,10,07,06,12,27.40
2016,10,07,06,13,22.50
2016,10,07,06,14,22.50
2016,10,07,06,15,30.60
2016,10,07,06,16,14.50
2016,10,07,06,17,20.90
2016,10,07,06,18,24.20
2016,10,07,06,19,20.90
2016,10,07,06,20,17.70
2016,10,07,06,21,19.30
2016,10,07,06,22,22.50
2016,10,07,06,23,33.80
2016,10,07,06,24,25.70
2016,10,07,06,25,22.50
2016,10,07,06,26,32.20
2016,10,07,06,27,17.70
2016,10,07,06,28,27.40
2016,10,07,06,29,27.40
2016,10,07,06,30,19.30
2016,10,07,06,31,19.30
2016,10,07,06,32,25.70
2016,10,07,06,33,19.30
2016,10,07,06,34,22.50
2016,10,07,06,35,30.60
2016,10,07,06,36,29.00
2016,10,07,06,37,24.20
2016,10,07,06,38,24.20
2016,10,07,06,39,22.50
2016,10,07,06,40,27.40
2016,10,07,06,41,22.50
2016,10,07,06,42,22.50
2016,10,07,06,43,24.20
2016,10,07,06,44,22.50
2016,10,07,06,45,14.50
2016,10,07,06,46,17.70
2016,10,07,06,47,17.70
2016,10,07,06,48,25.70
2016,10,07,06,49,19.30
2016,10,07,06,50,17.70
2016,10,07,06,51,17.70
2016,10,07,06,52,20.90
2016,10,07,06,53,17.70
2016,10,07,06,54,17.70
2016,10,07,06,55,17.70
2016,10,07,06,56,11.30
2016,10,07,06,57,17.70
2016,10,07,06,58,25.70
2016,10,07,06,59,22.50
2016,10,07,07,00,20.90
2016,10,07,07,01,14.50
2016,10,07,07,02,16.10
2016,10,07,07,03,25.70
2016,10,07,07,04,22.50
2016,10,07,07,05,19.30
2016,10,07,07,06,22.50
2016,10,07,07,07,19.30
2016,10,07,07,08,12.90
2016,10,07,07,09,19.30
2016,10,07,07,10,16.10
2016,10,07,07,11,20.90
2016,10,07,07,12,20.90
2016,10,07,07,13,12.90
2016,10,07,07,14,27.40
2016,10,07,07,15,19.30
2016,10,07,07,16,20.90
2016,10,07,07,17,17.70
2016,10,07,07,18,16.10
2016,10,07,07,19,24.20
2016,10,07,07,20,17.70
2016,10,07,07,21,12.90
2016,10,07,07,22,17.70
2016,10,07,07,23,17.70
2016,10,07,07,24,22.50
2016,10,07,07,25,17.70
2016,10,07,07,26,17.70
2016,10,07,07,27,29.00
2016,10,07,07,28,19.30
2016,10,07,07,29,11.30
2016,10,07,07,30,20.90
2016,10,07,07,31,11.30
2016,10,07,07,32,20.90
2016,10,07,07,33,24.20
2016,10,07,07,34,17.70
2016,10,07,07,35,25.70
2016,10,07,07,36,14.50
2016,10,07,07,37,16.10
2016,10,07,07,38,24.20
2016,10,07,07,39,17.70
2016,10,07,07,40,14.50
2016,10,07,07,41,27.40
2016,10,07,07,42,19.30
2016,10,07,07,43,22.50
2016,10,07,07,44,24.20
2016,10,07,07,45,19.30
2016,10,07,07,46,20.90
2016,10,07,07,47,20.90
2016,10,07,07,48,16.10
2016,10,07,07,49,19.30
2016,10,07,07,50,16.10
2016,10,07,07,51,17.70
2016,10,07,07,52,16.10
2016,10,07,07,53,19.30
2016,10,07,07,54,12.90
2016,10,07,07,55,17.70
2016,10,07,07,56,12.90
2016,10,07,07,57,12.90
2016,10,07,07,58,17.70
2016,10,07,07,59,16.10
2016,10,07,08,00,25.70
2016,10,07,08,01,12.90
2016,10,07,08,02,19.30
2016,10,07,08,03,19.30
2016,10,07,08,04,17.70
2016,10,07,08,05,11.30
2016,10,07,08,06,19.30
2016,10,07,08,07,16.10
2016,10,07,08,08,19.30
2016,10,07,08,09,14.50
2016,10,07,08,10,17.70
2016,10,07,08,11,24.20
2016,10,07,08,12,16.10
2016,10,07,08,13,24.20
2016,10,07,08,14,22.50
2016,10,07,08,15,33.80
2016,10,07,08,16,33.80
2016,10,07,08,17,17.70
2016,10,07,08,18,24.20
2016,10,07,08,19,20.90
2016,10,07,08,20,29.00
2016,10,07,08,21,24.20
2016,10,07,08,22,24.20
2016,10,07,08,23,19.30
2016,10,07,08,24,17.70
2016,10,07,08,25,20.90
2016,10,07,08,26,20.90
2016,10,07,08,27,20.90
2016,10,07,08,28,19.30
2016,10,07,08,29,20.90
2016,10,07,08,30,19.30
2016,10,07,08,31,19.30
2016,10,07,08,32,17.70
2016,10,07,08,33,20.90
2016,10,07,08,34,14.50
2016,10,07,08,35,20.90
2016,10,07,08,36,16.10
2016,10,07,08,37,14.50
2016,10,07,08,38,22.50
2016,10,07,08,39,19.30
2016,10,07,08,40,17.70
2016,10,07,08,41,16.10
2016,10,07,08,42,17.70
2016,10,07,08,43,20.90
2016,10,07,08,44,20.90
2016,10,07,08,45,19.30
2016,10,07,08,46,20.90
2016,10,07,08,47,17.70
2016,10,07,08,48,19.30
2016,10,07,08,49,22.50
2016,10,07,08,50,27.40
2016,10,07,08,51,16.10
2016,10,07,08,52,20.90
2016,10,07,08,53,19.30
2016,10,07,08,54,25.70
2016,10,07,08,55,22.50
2016,10,07,08,56,22.50
2016,10,07,08,57,19.30
2016,10,07,08,58,19.30
2016,10,07,08,59,24.20
2016,10,07,09,00,30.60
2016,10,07,09,01,30.60
2016,10,07,09,02,24.20
2016,10,07,09,03,17.70
2016,10,07,09,04,17.70
2016,10,07,09,05,20.90
2016,10,07,09,06,30.60
2016,10,07,09,07,27.40
2016,10,07,09,08,20.90
2016,10,07,09,09,29.00
2016,10,07,09,10,33.80
2016,10,07,09,11,17.70
2016,10,07,09,12,22.50
2016,10,07,09,13,30.60
2016,10,07,09,14,19.30
2016,10,07,09,15,14.50
2016,10,07,09,16,24.20
2016,10,07,09,17,22.50
2016,10,07,09,18,24.20
2016,10,07,09,19,24.20
2016,10,07,09,20,16.10
2016,10,07,09,21,17.70
2016,10,07,09,22,20.90
2016,10,07,09,23,19.30
2016,10,07,09,24,14.50
2016,10,07,09,25,24.20
2016,10,07,09,26,22.50
2016,10,07,09,27,25.70
2016,10,07,09,28,19.30
2016,10,07,09,29,19.30
2016,10,07,09,30,20.90
2016,10,07,09,31,16.10
2016,10,07,09,32,16.10
2016,10,07,09,33,14.50
2016,10,07,09,34,19.30
2016,10,07,09,35,22.50
2016,10,07,09,36,24.20
2016,10,07,09,37,14.50
2016,10,07,09,38,14.50
2016,10,07,09,39,14.50
2016,10,07,09,40,14.50
2016,10,07,09,41,17.70
2016,10,07,09,42,17.70
2016,10,07,09,43,14.50
2016,10,07,09,44,12.90
2016,10,07,09,45,22.50
2016,10,07,09,46,30.60
2016,10,07,09,47,19.30
2016,10,07,09,48,25.70
2016,10,07,09,49,20.90
2016,10,07,09,50,24.20
2016,10,07,09,51,16.10
2016,10,07,09,52,14.50
2016,10,07,09,53,14.50
2016,10,07,09,54,19.30
2016,10,07,09,55,22.50
2016,10,07,09,56,12.90
2016,10,07,09,57,14.50
2016,10,07,09,58,25.70
2016,10,07,09,59,19.30
2016,10,07,10,00,16.10
2016,10,07,10,01,11.30
2016,10,07,10,02,16.10
2016,10,07,10,03,11.30
2016,10,07,10,04,20.90
2016,10,07,10,05,17.70
2016,10,07,10,06,14.50
2016,10,07,10,07,16.10
2016,10,07,10,08,16.10
2016,10,07,10,09,22.50
2016,10,07,10,10,16.10
2016,10,07,10,11,11.30
2016,10,07,10,12,14.50
2016,10,07,10,13,16.10
2016,10,07,10,14,14.50
2016,10,07,10,15,12.90
2016,10,07,10,16,14.50
2016,10,07,10,17,14.50
2016,10,07,10,18,14.50
2016,10,07,10,19,17.70
2016,10,07,10,20,14.50
2016,10,07,10,21,12.90
2016,10,07,10,22,12.90
2016,10,07,10,23,8.10
2016,10,07,10,24,14.50
2016,10,07,10,25,22.50
2016,10,07,10,26,16.10
2016,10,07,10,27,20.90
2016,10,07,10,28,12.90
2016,10,07,10,29,16.10
2016,10,07,10,30,14.50
2016,10,07,10,31,16.10
2016,10,07,10,32,25.70
2016,10,07,10,33,16.10
2016,10,07,10,34,17.70
2016,10,07,10,35,16.10
2016,10,07,10,36,9.60
2016,10,07,10,37,9.60
2016,10,07,10,38,16.10
2016,10,07,10,39,14.50
2016,10,07,10,40,16.10
2016,10,07,10,41,12.90
2016,10,07,10,42,20.90
2016,10,07,10,43,22.50
2016,10,07,10,44,12.90
2016,10,07,10,45,14.50
2016,10,07,10,46,20.90
2016,10,07,10,47,19.30
2016,10,07,10,48,22.50
2016,10,07,10,49,14.50
2016,10,07,10,50,24.20
2016,10,07,10,51,19.30
2016,10,07,10,52,14.50
2016,10,07,10,53,14.50
2016,10,07,10,54,11.30
2016,10,07,10,55,14.50
2016,10,07,10,56,22.50
2016,10,07,10,57,14.50
2016,10,07,10,58,17.70
2016,10,07,10,59,19.30
2016,10,07,11,00,14.50
2016,10,07,11,01,11.30
2016,10,07,11,02,16.10
2016,10,07,11,03,16.10
2016,10,07,11,04,14.50
2016,10,07,11,05,14.50
2016,10,07,11,06,17.70
2016,10,07,11,07,19.30
2016,10,07,11,08,22.50
2016,10,07,11,09,19.30
2016,10,07,11,10,17.70
2016,10,07,11,11,19.30
2016,10,07,11,12,14.50
2016,10,07,11,13,22.50
2016,10,07,11,14,22.50
2016,10,07,11,15,19.30
2016,10,07,11,16,22.50
2016,10,07,11,17,20.90
2016,10,07,11,18,19.30
2016,10,07,11,19,17.70
2016,10,07,11,20,24.20
2016,10,07,11,21,17.70
2016,10,07,11,22,9.60
2016,10,07,11,23,11.30
2016,10,07,11,24,14.50
2016,10,07,11,25,14.50
2016,10,07,11,26,17.70
2016,10,07,11,27,20.90
2016,10,07,11,28,19.30
2016,10,07,11,29,14.50
2016,10,07,11,30,16.10
2016,10,07,11,31,20.90
2016,10,07,11,32,14.50
2016,10,07,11,33,17.70
2016,10,07,11,34,16.10
2016,10,07,11,35,11.30
2016,10,07,11,36,12.90
2016,10,07,11,37,16.10
2016,10,07,11,38,12.90
2016,10,07,11,39,17.70
2016,10,07,11,40,22.50
2016,10,07,11,41,20.90
2016,10,07,11,42,20.90
2016,10,07,11,43,17.70
2016,10,07,11,44,14.50
2016,10,07,11,45,14.50
2016,10,07,11,46,17.70
2016,10,07,11,47,9.60
2016,10,07,11,48,19.30
2016,10,07,11,49,16.10
2016,10,07,11,50,16.10
2016,10,07,11,51,14.50
2016,10,07,11,52,16.10
2016,10,07,11,53,14.50
2016,10,07,11,54,19.30
2016,10,07,11,55,14.50
2016,10,07,11,56,9.60
2016,10,07,11,57,11.30
2016,10,07,11,58,14.50
2016,10,07,11,59,16.10
2016,10,07,12,00,11.30
2016,10,07,12,01,8.10
2016,10,07,12,02,12.90
2016,10,07,12,03,17.70
2016,10,07,12,04,14.50
2016,10,07,12,05,12.90
2016,10,07,12,06,14.50
2016,10,07,12,07,17.70
2016,10,07,12,08,14.50
2016,10,07,12,09,14.50
2016,10,07,12,10,17.70
2016,10,07,12,11,16.10
2016,10,07,12,12,16.10
2016,10,07,12,13,14.50
2016,10,07,12,14,11.30
2016,10,07,12,15,11.30
2016,10,07,12,16,12.90
2016,10,07,12,17,20.90
2016,10,07,12,18,17.70
2016,10,07,12,19,12.90
2016,10,07,12,20,11.30
2016,10,07,12,21,16.10
2016,10,07,12,22,9.60
2016,10,07,12,23,12.90
2016,10,07,12,24,12.90
2016,10,07,12,25,17.70
2016,10,07,12,26,9.60
2016,10,07,12,27,11.30
2016,10,07,12,28,12.90
2016,10,07,12,29,11.30
2016,10,07,12,30,9.60
2016,10,07,12,31,8.10
2016,10,07,12,32,17.70
2016,10,07,12,33,16.10
2016,10,07,12,34,12.90
2016,10,07,12,35,11.30
2016,10,07,12,36,16.10
2016,10,07,12,37,11.30
2016,10,07,12,38,14.50
2016,10,07,12,39,17.70
2016,10,07,12,40,16.10
2016,10,07,12,41,12.90
2016,10,07,12,42,8.10
2016,10,07,12,43,9.60
2016,10,07,12,44,11.30
2016,10,07,12,45,9.60
2016,10,07,12,46,11.30
2016,10,07,12,47,11.30
2016,10,07,12,48,9.60
2016,10,07,12,49,12.90
2016,10,07,12,50,9.60
2016,10,07,12,51,16.10
2016,10,07,12,52,11.30
2016,10,07,12,53,11.30
2016,10,07,12,54,11.30
2016,10,07,12,55,9.60
2016,10,07,12,56,8.10
2016,10,07,12,57,11.30
2016,10,07,12,58,14.50
2016,10,07,12,59,16.10
2016,10,07,13,00,17.70
2016,10,07,13,01,17.70
2016,10,07,13,02,17.70
2016,10,07,13,03,9.60
2016,10,07,13,04,9.60
2016,10,07,13,05,12.90
2016,10,07,13,06,8.10
2016,10,07,13,07,11.30
2016,10,07,13,08,16.10
2016,10,07,13,09,9.60
2016,10,07,13,10,14.50
2016,10,07,13,11,12.90
2016,10,07,13,12,14.50
2016,10,07,13,13,14.50
2016,10,07,13,14,17.70
2016,10,07,13,15,14.50
2016,10,07,13,16,14.50
2016,10,07,13,17,11.30
2016,10,07,13,18,14.50
2016,10,07,13,19,17.70
2016,10,07,13,20,14.50
2016,10,07,13,21,12.90
2016,10,07,13,22,16.10
2016,10,07,13,23,16.10
2016,10,07,13,24,12.90
2016,10,07,13,25,12.90
2016,10,07,13,26,16.10
2016,10,07,13,27,14.50
2016,10,07,13,28,12.90
2016,10,07,13,29,14.50
2016,10,07,13,30,14.50
2016,10,07,13,31,12.90
2016,10,07,13,32,12.90
2016,10,07,13,33,11.30
2016,10,07,13,34,11.30
2016,10,07,13,35,9.60
2016,10,07,13,36,8.10
2016,10,07,13,37,12.90
2016,10,07,13,38,14.50
2016,10,07,13,39,11.30
2016,10,07,13,40,11.30
2016,10,07,13,41,16.10
2016,10,07,13,42,14.50
2016,10,07,13,43,14.50
2016,10,07,13,44,14.50
2016,10,07,13,45,14.50
2016,10,07,13,46,17.70
2016,10,07,13,47,16.10
2016,10,07,13,48,11.30
2016,10,07,13,49,11.30
2016,10,07,13,50,16.10
2016,10,07,13,51,14.50
2016,10,07,13,52,14.50
2016,10,07,13,53,16.10
2016,10,07,13,54,12.90
2016,10,07,13,55,17.70
2016,10,07,13,56,14.50
2016,10,07,13,57,12.90
2016,10,07,13,58,14.50
2016,10,07,13,59,17.70
2016,10,07,14,00,12.90
2016,10,07,14,01,17.70
2016,10,07,14,02,17.70
2016,10,07,14,03,14.50
2016,10,07,14,04,16.10
2016,10,07,14,05,16.10
2016,10,07,14,06,17.70
2016,10,07,14,07,17.70
2016,10,07,14,08,19.30
2016,10,07,14,09,16.10
2016,10,07,14,10,19.30
2016,10,07,14,11,14.50
2016,10,07,14,12,16.10
2016,10,07,14,13,14.50
2016,10,07,14,14,14.50
2016,10,07,14,15,11.30
2016,10,07,14,16,14.50
2016,10,07,14,17,12.90
2016,10,07,14,18,12.90
2016,10,07,14,19,12.90
2016,10,07,14,20,12.90
2016,10,07,14,21,9.60
2016,10,07,14,22,11.30
2016,10,07,14,23,11.30
2016,10,07,14,24,11.30
2016,10,07,14,25,9.60
2016,10,07,14,26,11.30
2016,10,07,14,27,9.60
2016,10,07,14,28,14.50
2016,10,07,14,29,17.70
2016,10,07,14,30,17.70
2016,10,07,14,31,11.30
2016,10,07,14,32,14.50
2016,10,07,14,33,11.30
2016,10,07,14,34,14.50
2016,10,07,14,35,12.90
2016,10,07,14,36,11.30
2016,10,07,14,37,12.90
2016,10,07,14,38,12.90
2016,10,07,14,39,8.10
2016,10,07,14,40,16.10
2016,10,07,14,41,11.30
2016,10,07,14,42,11.30
2016,10,07,14,43,8.10
2016,10,07,14,44,11.30
2016,10,07,14,45,8.10
2016,10,07,14,46,11.30
2016,10,07,14,47,8.10
2016,10,07,14,48,8.10
2016,10,07,14,49,11.30
2016,10,07,14,50,11.30
2016,10,07,14,51,11.30
2016,10,07,14,52,9.60
2016,10,07,14,53,8.10
2016,10,07,14,54,9.60
2016,10,07,14,55,6.40
2016,10,07,14,56,6.40
2016,10,07,14,57,12.90
2016,10,07,14,58,11.30
2016,10,07,14,59,14.50
2016,10,07,15,00,12.90
2016,10,07,15,01,9.60
2016,10,07,15,02,14.50
2016,10,07,15,03,12.90
2016,10,07,15,04,11.30
2016,10,07,15,05,16.10
2016,10,07,15,06,14.50
2016,10,07,15,07,9.60
2016,10,07,15,08,14.50
2016,10,07,15,09,11.30
2016,10,07,15,10,12.90
2016,10,07,15,11,16.10
2016,10,07,15,12,8.10
2016,10,07,15,13,8.10
2016,10,07,15,14,8.10
2016,10,07,15,15,8.10
2016,10,07,15,16,8.10
2016,10,07,15,17,11.30
2016,10,07,15,18,9.60
2016,10,07,15,19,8.10
2016,10,07,15,20,4.80
2016,10,07,15,21,8.10
2016,10,07,15,22,12.90
2016,10,07,15,23,11.30
2016,10,07,15,24,9.60
2016,10,07,15,25,9.60
2016,10,07,15,26,11.30
2016,10,07,15,27,9.60
2016,10,07,15,28,6.40
2016,10,07,15,29,9.60
2016,10,07,15,30,9.60
2016,10,07,15,31,8.10
2016,10,07,15,32,11.30
2016,10,07,15,33,8.10
2016,10,07,15,34,9.60
2016,10,07,15,35,11.30
2016,10,07,15,36,12.90
2016,10,07,15,37,12.90
2016,10,07,15,38,8.10
2016,10,07,15,39,8.10
2016,10,07,15,40,8.10
2016,10,07,15,41,9.60
2016,10,07,15,42,9.60
2016,10,07,15,43,6.40
2016,10,07,15,44,8.10
2016,10,07,15,45,11.30
2016,10,07,15,46,8.10
2016,10,07,15,47,8.10
2016,10,07,15,48,8.10
2016,10,07,15,49,6.40
2016,10,07,15,50,6.40
2016,10,07,15,51,6.40
2016,10,07,15,52,4.80
2016,10,07,15,53,9.60
2016,10,07,15,54,8.10
2016,10,07,15,55,8.10
2016,10,07,15,56,6.40
2016,10,07,15,57,4.80
2016,10,07,15,58,4.80
2016,10,07,15,59,6.40
2016,10,07,16,00,6.40
2016,10,07,16,01,6.40
2016,10,07,16,02,4.80
2016,10,07,16,03,4.80
2016,10,07,16,04,6.40
2016,10,07,16,05,6.40
2016,10,07,16,06,6.40
2016,10,07,16,07,8.10
2016,10,07,16,08,6.40
2016,10,07,16,09,6.40
2016,10,07,16,10,4.80
2016,10,07,16,11,4.80
2016,10,07,16,12,4.80
2016,10,07,16,13,4.80
2016,10,07,16,14,8.10
2016,10,07,16,15,8.10
2016,10,07,16,16,4.80
2016,10,07,16,17,8.10
2016,10,07,16,18,6.40
2016,10,07,16,19,8.10
2016,10,07,16,20,6.40
2016,10,07,16,21,6.40
2016,10,07,16,22,4.80
2016,10,07,16,23,4.80
2016,10,07,16,24,1.60
2016,10,07,16,25,6.40
2016,10,07,16,26,4.80
2016,10,07,16,27,4.80
2016,10,07,16,28,6.40
2016,10,07,16,29,6.40
2016,10,07,16,30,8.10
2016,10,07,16,31,6.40
2016,10,07,16,32,8.10
2016,10,07,16,33,11.30
2016,10,07,16,34,8.10
2016,10,07,16,35,8.10
2016,10,07,16,36,9.60
2016,10,07,16,37,9.60
2016,10,07,16,38,9.60
2016,10,07,16,39,9.60
2016,10,07,16,40,11.30
2016,10,07,16,41,8.10
2016,10,07,16,42,9.60
2016,10,07,16,43,9.60
2016,10,07,16,44,9.60
2016,10,07,16,45,8.10
2016,10,07,16,46,9.60
2016,10,07,16,47,8.10
2016,10,07,16,48,9.60
2016,10,07,16,49,9.60
2016,10,07,16,50,8.10
2016,10,07,16,51,11.30
2016,10,07,16,52,9.60
2016,10,07,16,53,9.60
2016,10,07,16,54,9.60
2016,10,07,16,55,9.60
2016,10,07,16,56,8.10
2016,10,07,16,57,8.10
2016,10,07,16,58,8.10
2016,10,07,16,59,8.10
2016,10,07,17,00,6.40
2016,10,07,17,01,8.10
2016,10,07,17,02,6.40
2016,10,07,17,03,6.40
2016,10,07,17,04,3.20
2016,10,07,17,05,6.40
2016,10,07,17,06,3.20
2016,10,07,17,07,3.20
2016,10,07,17,08,1.60
2016,10,07,17,09,6.40
2016,10,07,17,10,6.40
2016,10,07,17,11,6.40
2016,10,07,17,12,6.40
2016,10,07,17,13,6.40
2016,10,07,17,14,8.10
2016,10,07,17,15,8.10
2016,10,07,17,16,3.20
2016,10,07,17,17,8.10
2016,10,07,17,18,8.10
2016,10,07,17,19,8.10
2016,10,07,17,20,8.10
2016,10,07,17,21,6.40
2016,10,07,17,22,8.10
2016,10,07,17,23,8.10
2016,10,07,17,24,6.40
2016,10,07,17,25,8.10
2016,10,07,17,26,6.40
2016,10,07,17,27,6.40